{"data":{"norad_id":43482,"epoch":"2026-05-25T03:28:35.249088Z","epoch_age_seconds":62445,"freshness":"FRESH","line1":"1 43482U 18047G   26145.14485242  .00000253  00000+0  69141-4 0  9993","line2":"2 43482  86.4468  97.9963 0002465  84.7199 275.4283 14.43279499421805","mean_motion":14.43279499,"eccentricity":0.0002465,"inclination_deg":86.4468,"raan_deg":97.9963,"arg_perigee_deg":84.7199,"mean_anomaly_deg":275.4283,"bstar":6.9141e-5,"rev_number":42180,"period_min":99.772774504019,"perigee_km":745.92700576419,"apogee_km":749.44003528081,"semimajor_km":7125.8205205225,"source":"CELESTRAK","updated_at":"2026-05-25T13:38:14.810786Z"}}